Flag for France Weather past 2 weeks in Strasbourg, France

Now
95 °F

Sunny.


Feels Like: 94 °F
Forecast: 65 / 95 °F
Wind: 6 mph from North

Location: Strasbourg Airport

Current Time: Jul 1, 2015 at 5:37:24 PM

Latest Report: Jul 1, 2015 at 5:00 PM


Visibility: 10 mi

Pressure: 30.01 "Hg

Humidity: 28%

Dew point: 57 °F

Location of StrasbourgLocation

Historic Weather in Strasbourg — Graph

°F

Strasbourg temperature yesterday

Maximum temperature yesterday: 88 °F (at 2:30 PM)
Minimum temperature yesterday: 61 °F (at 4:30 AM)
Average temperature yesterday: 75 °F

Past Weeks' High & Low Weather Summary

 TemperatureHumidityPressure
High95 °F (Jul 1, 4:30 PM)100% (Jun 22, 5:00 AM)30.24 "Hg (Jun 22, 5:00 AM)
Low48 °F (Jun 23, 5:30 AM)25% (Jul 1, 4:30 PM)29.77 "Hg (Jun 22, 7:00 PM)
Average65 °F65%30.10 "Hg
* Reported Jun 16 4:00 PM — Jul 1 4:30 PM, Strasbourg, Weather by CustomWeather, © 2015

Note: Actual official high and low records may vary slightly from our data, if they occured in-between our weather recording intervals... More about our weather records

Advertising

Strasbourg weather history for previous 24 hours

 ConditionsComfort  
Time TempWeatherWind HumidityBarometerVisibility
4:30 PM
Wed, Jul 1
95 °FPassing clouds.8 mph25%30.01 "HgN/A
4:00 PM93 °FPassing clouds.6 mph30%30.04 "HgN/A
3:30 PM93 °FSunny.5 mph30%30.04 "Hg10 mi
3:00 PM91 °FSunny.3 mph32%30.04 "Hg10 mi
2:30 PM91 °FPassing clouds.3 mph32%30.04 "HgN/A
2:00 PM90 °FSunny.5 mph36%30.04 "Hg10 mi
1:30 PM90 °FSunny.5 mph33%30.07 "Hg10 mi
1:00 PM90 °FPassing clouds.5 mph36%30.07 "HgN/A
12:30 PM88 °FSunny.5 mph38%30.07 "Hg10 mi
12:00 PM86 °FPassing clouds.6 mph38%30.07 "HgN/A
11:30 AM84 °FPassing clouds.5 mph40%30.07 "HgN/A
11:00 AM82 °FPassing clouds.5 mph42%30.07 "HgN/A
10:30 AM81 °FSunny.2 mph45%30.09 "Hg10 mi
10:00 AM79 °FSunny.2 mph45%30.09 "Hg10 mi
9:30 AM77 °FSunny.2 mph47%30.09 "Hg10 mi
9:00 AM75 °FSunny.3 mph50%30.09 "Hg10 mi
8:30 AM73 °FSunny.3 mph53%30.09 "Hg10 mi
8:00 AM72 °FSunny.3 mph53%30.09 "Hg10 mi
7:30 AM70 °FSunny.6 mph57%30.07 "Hg10 mi
7:00 AM66 °FSunny.3 mph73%30.07 "Hg10 mi
6:30 AM64 °FPassing clouds.5 mph68%30.07 "HgN/A
6:00 AM61 °FClear.5 mph77%30.07 "Hg10 mi
5:30 AM61 °FClear.5 mph77%30.07 "Hg10 mi
5:00 AM61 °FClear.3 mph77%30.07 "Hg10 mi
4:30 AM63 °FClear.2 mph73%30.07 "Hg10 mi
4:00 AM63 °FClear.3 mph73%30.07 "Hg10 mi
3:30 AM63 °FClear.3 mph77%30.07 "Hg10 mi
3:00 AM64 °FClear.2 mph73%30.07 "Hg10 mi
2:30 AM64 °FClear.5 mph73%30.07 "Hg10 mi
2:00 AM66 °FClear.2 mph68%30.07 "Hg10 mi
1:30 AM66 °FClear.3 mph68%30.07 "Hg10 mi
1:00 AM64 °FClear.5 mph78%30.07 "Hg10 mi
12:30 AM68 °FClear.3 mph69%30.07 "Hg10 mi
12:00 AM70 °FClear.3 mph60%30.07 "Hg10 mi
11:30 PM
Tue, Jun 30
70 °FClear.3 mph64%30.07 "Hg10 mi
11:00 PM73 °FClear.2 mph53%30.07 "Hg10 mi
10:30 PM75 °FSunny.6 mph50%30.07 "Hg10 mi
10:00 PM73 °FClear.7 mph57%30.07 "HgN/A
9:30 PM77 °FSunny.6 mph51%30.04 "Hg10 mi
9:00 PM82 °FSunny.6 mph40%30.04 "Hg10 mi
8:30 PM84 °FPassing clouds.9 mph37%30.04 "HgN/A
8:00 PM84 °FPassing clouds.10 mph40%30.04 "HgN/A
7:00 PM88 °FSunny.12 mph40%30.04 "Hg10 mi
6:30 PM88 °FPassing clouds.10 mph38%30.04 "HgN/A
6:00 PM88 °FSunny.9 mph35%30.04 "Hg10 mi
5:00 PM88 °FPassing clouds.9 mph35%30.07 "HgN/A
Weather by CustomWeather, © 2015

See weather overviewHow to use our weather pages